Location: Piotrkow Trybunalski
(51.4000°N, 19.6830°E)
Time: 08:47:02
(UTC+01:00)

A-11 Canister half - Pass Details

Date: 29 September 2023
Orbit: 1524 x 1684 km, 47.3° (Epoch: 01 December)

Event Time Altitude Azimuth Distance (km) Brightness Sun altitude
Rises 20:43:54 0° 287° (WNW) 4,753 13.0 -22.0°
Reaches altitude 10° 20:47:33 10° 276° (W) 3,789 12.0 -22.5°
Maximum altitude 20:55:01 26° 224° (SW) 2,758 10.4 -23.6°
Enters shadow 21:02:08 12° 175° (S) 3,751 10.7 -24.5°
